This is the latest recevied weather packets stored in our database for station/object KS5S. If no packets are shown the sender has not sent any weather packets the latest 10 day(s).
| Time | Temp. | Humidity | Pressure | Rain* | Wind** | Luminosity | Snow |
|---|---|---|---|---|---|---|---|
| 1777685075 | 15.56° C | 72% | 1014.9 hPa | 0 mm | - | 0 W/m² | - |
| 1777684772 | 15.56° C | 71% | 1014.8 hPa | 0 mm | - | 1 W/m² | - |
| 1777684468 | 15.56° C | 71% | 1014.9 hPa | 0 mm | - | 1 W/m² | - |
| 1777684166 | 15.56° C | 71% | 1014.9 hPa | 0 mm | - | 2 W/m² | - |
| 1777683862 | 15.56° C | 70% | 1014.8 hPa | 0 mm | - | 3 W/m² | - |
| 1777683558 | 15.56° C | 70% | 1014.6 hPa | 0 mm | - | 4 W/m² | - |
| 1777683256 | 15.56° C | 71% | 1014.7 hPa | 0 mm | - | 4 W/m² | - |
| 1777682955 | 15.56° C | 70% | 1014.4 hPa | 0 mm | - | 7 W/m² | - |
| 1777682650 | 16.11° C | 69% | 1014.4 hPa | 0 mm | - | 11 W/m² | - |
| 1777682347 | 16.11° C | 70% | 1014.2 hPa | 0 mm | - | 20 W/m² | - |
| 1777682044 | 16.11° C | 69% | 1014.1 hPa | 0 mm | - | 17 W/m² | - |
| 1777681740 | 16.11° C | 67% | 1014 hPa | 0 mm | - | 26 W/m² | - |
| 1777681437 | 16.11° C | 67% | 1014.2 hPa | 0 mm | - | 45 W/m² | - |
| 1777681134 | 16.11° C | 66% | 1014 hPa | 0 mm | - | 40 W/m² | - |
| 1777680832 | 16.67° C | 66% | 1013.7 hPa | 0 mm | - | 32 W/m² | - |
| 1777680530 | 16.67° C | 65% | 1013.7 hPa | 0 mm | - | 31 W/m² | - |
| 1777680229 | 16.67° C | 67% | 1013.8 hPa | 0 mm | - | 39 W/m² | - |
| 1777679924 | 16.67° C | 68% | 1013.8 hPa | 0 mm | - | 55 W/m² | - |
| 1777679620 | 16.67° C | 68% | 1013.8 hPa | 0 mm | - | 86 W/m² | - |
| 1777679315 | 16.67° C | 68% | 1013.5 hPa | 0 mm | - | 92 W/m² | - |
| 1777679012 | 17.22° C | 69% | 1013.5 hPa | 0 mm | - | 102 W/m² | - |
| 1777678711 | 17.22° C | 70% | 1013.5 hPa | 0 mm | - | 97 W/m² | - |
| 1777678408 | 17.22° C | 69% | 1013.4 hPa | 0 mm | - | 108 W/m² | - |
| 1777678104 | 17.22° C | 70% | 1013.6 hPa | 0 mm | - | 122 W/m² | - |
| 1777677801 | 17.22° C | 70% | 1013.3 hPa | 0 mm | - | 108 W/m² | - |
* Rain latest hour (hover to see other rain measurements)
** Current wind speed in m/s (hover to see current wind gust speed)